Terminal Aerodrome Forecast
Issued by NWS

Home | Current Version | Previous Version | Text Only | Print | Product List | Glossary On
Versions: 1 2 3 4 5 6 7 8 9 10 11 12 13 14 15 16
000
FTUS44 KLUB 061137 AAA
TAFCDS
TAF AMD
KCDS 061137Z 0612/0712 14007KT P6SM FEW250
     FM061700 16015G25KT P6SM SCT250
     FM070000 16015KT P6SM SCT250=

USA.gov is the U.S. government's official web portal to all federal, state and local government web resources and services.